Homestead AFB, FL

6:32 PM EST on February 22, 2018 (GMT -0500)
Dade County-Homestead Regional

Weather History for KHST - November, 2013

Change the Weather History Date:

Monday, November 4, 2013

  Actual Average Record
Temperature  
Mean Temperature 76 °F -  
Max Temperature 82 °F 83 °F 88 °F (1941)
Min Temperature 71 °F 65 °F 46 °F (1966)
Cooling Degree Days 12    
Growing Degree Days 26 (Base 50)    
Moisture  
Dew Point 67 °F    
Average Humidity 77    
Maximum Humidity 94    
Minimum Humidity 47    
Precipitation  
Precipitation 0.31 in - - ()
Sea Level Pressure  
Sea Level Pressure 30.03 in    
Wind  
Wind Speed 17 mph (NE)    
Max Wind Speed 21 mph    
Max Gust Speed 31 mph    
Visibility 9 miles    
Events Rain    
Averages and records for this station are not official NWS values.
T = Trace of Precipitation, MM = Missing Value Source: NWS Daily Summary

Daily Weather History Graph

Daily Weather History Graph

Search for Another Location

Airport or City:

Trip Planner

Search our weather history database for the weather conditions in past years. The results will help you decide how hot, cold, wet, or windy it might be!

Date:

Astronomy

Nov. 04, 2013 Rise Set
Actual Time 6:31 AM EST 5:38 PM EST
Civil Twilight 6:07 AM EST 6:02 PM EST
Nautical Twilight 5:40 AM EST 6:29 PM EST
Astronomical Twilight 5:13 AM EST 6:56 PM EST
Moon 7:34 AM EST (11/4) 6:48 PM EST (11/4)
Length of Visible Light 11h 54m
Length of Day
11h 06m
New Moon, 2% of the Moon is Illuminated
Nov 4
New Moon
Nov 10
First Quarter
Nov 17
Full
Nov 25
Last Quarter
Dec 2
New

Hourly Weather History & Observations

Time (EST) Temp. Heat Index Dew Point Humidity Pressure Visibility Wind Dir Wind Speed Gust Speed Precip Events Conditions
12:58 AM 75.6 °F - 64.8 °F 69% 30.01 in 10.0 mi NE 16.1 mph 24.2 mph N/A   Partly Cloudy
1:58 AM 75.0 °F - 65.7 °F 73% 30.00 in 10.0 mi NE 16.1 mph 24.2 mph N/A   Clear
2:58 AM 75.2 °F - 64.8 °F 70% 30.00 in 10.0 mi NE 17.3 mph 23.0 mph N/A   Clear
3:58 AM 75.0 °F - 63.1 °F 66% 29.99 in 10.0 mi NE 19.6 mph - N/A   Clear
4:58 AM 75.2 °F - 63.7 °F 67% 30.00 in 10.0 mi ENE 17.3 mph 25.3 mph N/A   Partly Cloudy
5:58 AM 75.0 °F - 62.4 °F 65% 30.01 in 10.0 mi ENE 18.4 mph 23.0 mph N/A   Clear
6:58 AM 74.8 °F - 62.1 °F 64% 30.03 in 10.0 mi ENE 15.0 mph 21.9 mph N/A   Clear
7:58 AM 76.6 °F - 61.5 °F 59% 30.05 in 10.0 mi ENE 16.1 mph - N/A   Clear
8:58 AM 78.4 °F - 61.7 °F 56% 30.07 in 10.0 mi NE 16.1 mph - N/A   Clear
9:58 AM 80.1 °F 81.1 °F 61.2 °F 52% 30.08 in 10.0 mi NE 19.6 mph 24.2 mph N/A   Clear
10:58 AM 81.1 °F 81.5 °F 59.4 °F 47% 30.07 in 10.0 mi NE 19.6 mph 26.5 mph N/A   Clear
11:58 AM 82.0 °F 83.3 °F 63.1 °F 53% 30.05 in 10.0 mi NE 16.1 mph 25.3 mph N/A   Clear
12:58 PM 81.5 °F 83.7 °F 66.2 °F 60% 30.03 in 10.0 mi NE 18.4 mph 24.2 mph N/A   Clear
1:58 PM 79.2 °F - 68.9 °F 71% 30.01 in 10.0 mi ENE 17.3 mph 27.6 mph N/A   Clear
2:58 PM 80.6 °F 83.9 °F 70.0 °F 70% 30.00 in 10.0 mi ENE 17.3 mph - N/A   Partly Cloudy
3:58 PM 78.6 °F - 69.3 °F 73% 30.01 in 10.0 mi NE 18.4 mph 31.1 mph N/A   Clear
4:46 PM 75.2 °F - 68.0 °F 78% 30.00 in 10.0 mi NE 20.7 mph 25.3 mph N/A Rain Light Rain
4:52 PM 75.2 °F - 69.8 °F 83% 30.01 in 3.0 mi NNE 17.3 mph - N/A Rain Light Rain
4:58 PM 75.2 °F - 69.8 °F 83% 30.02 in 3.0 mi NE 18.4 mph - 0.02 in Rain Heavy Rain
5:01 PM 73.4 °F - 69.8 °F 88% 30.02 in 1.5 mi NE 13.8 mph - N/A Rain Heavy Rain
5:21 PM 71.6 °F - 69.8 °F 94% 30.01 in 3.0 mi NE 18.4 mph 25.3 mph N/A Rain Rain
5:46 PM 71.6 °F - 69.8 °F 94% 30.01 in 3.0 mi NE 15.0 mph - N/A Rain Heavy Rain
5:51 PM 71.6 °F - 69.8 °F 94% 30.01 in 5.0 mi NE 13.8 mph - N/A Rain Rain
5:58 PM 72.1 °F - 69.8 °F 92% 30.02 in 9.0 mi NNE 15.0 mph - 0.17 in Rain Light Rain
6:19 PM 71.6 °F - 69.8 °F 94% 30.00 in 4.0 mi ENE 20.7 mph 25.3 mph N/A Rain Light Rain
6:33 PM 71.6 °F - 69.8 °F 94% 30.01 in 10.0 mi NE 16.1 mph 26.5 mph N/A   Light Drizzle
6:58 PM 73.6 °F - 70.2 °F 89% 30.03 in 10.0 mi NE 16.1 mph 26.5 mph 0.05 in Rain Light Rain
6:59 PM 73.4 °F - 69.8 °F 88% 30.02 in 10.0 mi ENE 18.4 mph 26.5 mph N/A   Scattered Clouds
7:05 PM 73.4 °F - 68.0 °F 83% 30.02 in 10.0 mi ENE 17.3 mph 27.6 mph N/A   Light Drizzle
7:15 PM 73.4 °F - 69.8 °F 88% 30.03 in 6.0 mi ENE 15.0 mph 28.8 mph N/A Rain Light Rain
7:50 PM 73.4 °F - 69.8 °F 88% 30.03 in 10.0 mi NE 19.6 mph 26.5 mph N/A Rain Light Rain
7:51 PM 73.4 °F - 69.8 °F 88% 30.03 in 10.0 mi NE 20.7 mph 26.5 mph N/A   Scattered Clouds
7:58 PM 73.0 °F - 69.8 °F 90% 30.04 in 10.0 mi NE 18.4 mph 26.5 mph 0.07 in   Mostly Cloudy
8:04 PM 73.4 °F - 69.8 °F 88% 30.03 in 10.0 mi NE 19.6 mph - N/A Rain Light Rain
8:21 PM 73.4 °F - 69.8 °F 88% 30.03 in 10.0 mi NE 18.4 mph 25.3 mph N/A   Scattered Clouds
8:23 PM 75.2 °F - 69.8 °F 83% 30.03 in 10.0 mi NE 20.7 mph 25.3 mph N/A Rain Light Rain
8:33 PM 75.2 °F - 69.8 °F 83% 30.04 in 10.0 mi NE 17.3 mph 27.6 mph N/A   Partly Cloudy
8:58 PM 75.2 °F - 68.5 °F 80% 30.05 in 10.0 mi NE 16.1 mph - 0.00 in   Scattered Clouds
9:58 PM 75.7 °F - 67.3 °F 75% 30.05 in 10.0 mi NE 19.6 mph 27.6 mph N/A   Partly Cloudy
10:58 PM 75.9 °F - 66.7 °F 73% 30.05 in 10.0 mi NE 19.6 mph 27.6 mph N/A   Partly Cloudy
11:44 PM 77.0 °F - 68.0 °F 74% 30.03 in 10.0 mi NE 19.6 mph 27.6 mph N/A Rain Light Rain
11:54 PM 75.2 °F - 68.0 °F 78% 30.03 in 10.0 mi NE 16.1 mph 27.6 mph N/A   Scattered Clouds
11:58 PM 75.2 °F - 68.0 °F 78% 30.04 in 10.0 mi NE 16.1 mph 27.6 mph 0.00 in   Mostly Cloudy